Regional Weather Roundup
Issued by NWS

Home | Current Version | Previous Version | Graphics & Text | Print | Product List | Glossary On
Versions: 1 2 3 4 5 6 7 8 9 10 11 12 13 14 15 16 17 18 19 20 21 22 23 24 25 26 27 28 29 30 31 32 33 34 35 36 37 38 39 40 41 42 43 44 45 46 47 48 49 50
000
ASUS43 KFSD 160810
RWRSD

WEATHER ROUNDUP FOR SOUTH DAKOTA
NATIONAL WEATHER SERVICE SIOUX FALLS SD
300 AM CDT MON OCT 16 2017

NOTE: "FAIR" INDICATES FEW OR NO CLOUDS BELOW 12,000 FEET WITH NO
SIGNIFICANT WEATHER AND/OR OBSTRUCTIONS TO VISIBILITY.


SDZ001>005-009-010-012>017-160900-
NORTHWEST AND NORTH CENTRAL SOUTH DAKOTA

CITY           SKY/WX    TMP DP  RH WIND       PRES   REMARKS
BUFFALO          N/A     40  28  62 SW7       30.08F
FAITH            N/A     38  28  67 S15       30.17F
MOBRIDGE       CLEAR     39  31  72 S6        30.17F
$$

SDZ012>016-024>037-041>051-057-063-072>074-160900-
SOUTHWEST AND SOUTH CENTRAL SOUTH DAKOTA

CITY           SKY/WX    TMP DP  RH WIND       PRES   REMARKS
RAPID CTY ARPT CLEAR     37  27  67 CALM      30.20F
PIERRE         CLEAR     38  32  79 CALM      30.22S
CUSTER         CLOUDY    37  21  52 W5        30.26F
ELLSWORTH AFB  CLEAR     39  28  63 SW7       30.18F
PHILIP         CLEAR     31  29  92 NW5       30.22F WCI  26
PINE RIDGE     CLEAR     40  28  62 W6        30.23F
SPEARFISH      FAIR      43  27  52 CALM      30.19F
WINNER         FAIR      45  32  60 SW9       30.26F
$$

SDZ004>011-016>023-039-040-160900-
NORTHEAST SOUTH DAKOTA

CITY           SKY/WX    TMP DP  RH WIND       PRES   REMARKS
ABERDEEN       CLEAR     27  26  96 S3        30.22F
WATERTOWN      CLEAR     35  32  88 CALM      30.23S
BROOKINGS      CLEAR     37  32  82 CALM      30.26S
SISSETON         N/A     35  31  85 SW3       30.19F
$$

SDZ017-020-022-023-036>040-048>070-160900-
SOUTHEAST SOUTH DAKOTA

CITY           SKY/WX    TMP DP  RH WIND       PRES   REMARKS
SIOUX FALLS    CLEAR     36  34  92 CALM      30.28S
HURON          PTCLDY    37  32  82 S5        30.25F
CHAMBERLAIN    CLEAR     37  36  94 CALM      30.26S
MITCHELL       CLEAR     38  33  82 S5        30.27F
YANKTON        CLEAR     39  34  82 CALM      30.29F
$$

ABBREVIATIONS USED IN REMARKS
   TC - TEMPERATURE IN CELSIUS
  WCI - WIND CHILL INDEX
   HX - HEAT INDEX
  VSB - VISIBILITY





USA.gov is the U.S. government's official web portal to all federal, state and local government web resources and services.